GFSFLT1_prec_precacc24_270.txt.gz
Total_Precipitation_Accumulation
0.00 0.00 0.00 0.00 0.00 0.00 0.00 0.00 0.00 0.00 0.00 0.00 0.00 0.00 0.00 0.01 0.03 0.07 0.03 0.00 0.00 0.00 0.00 0.00 0.00 0.00 0.00 0.00 0.00 0.00 0.01 0.03
0.00 0.00 0.00 0.00 0.00 0.00 0.00 0.00 0.00 0.00 0.00 0.00 0.00 0.00 0.00 0.00 0.04 0.16 0.12 0.05 0.03 0.01 0.00 0.00 0.01 0.01 0.02 0.03 0.03 0.01 0.04 0.20
0.00 0.00 0.00 0.00 0.00 0.00 0.00 0.00 0.00 0.00 0.00 0.00 0.00 0.00 0.00 0.00 0.01 0.05 0.13 0.12 0.08 0.04 0.02 0.00 0.01 0.00 0.01 0.05 0.06 0.08 0.02 0.39
0.00 0.00 0.00 0.00 0.00 0.00 0.00 0.00 0.00 0.00 0.00 0.00 0.00 0.00 0.00 0.00 0.00 0.00 0.00 0.02 0.09 0.10 0.02 0.00 0.00 0.01 0.00 0.01 0.04 0.22 0.26 0.40
0.00 0.00 0.00 0.00 0.00 0.00 0.00 0.00 0.00 0.00 0.00 0.00 0.00 0.00 0.00 0.00 0.00 0.00 0.00 0.08 0.19 0.12 0.08 0.05 0.04 0.05 0.05 0.04 0.13 0.20 0.43 0.28
0.00 0.00 0.00 0.00 0.00 0.00 0.00 0.00 0.00 0.00 0.00 0.00 0.00 0.00 0.01 0.05 0.07 0.06 0.03 0.03 0.11 0.17 0.19 0.24 0.19 0.11 0.07 0.09 0.26 0.32 0.25 0.33
0.00 0.00 0.00 0.00 0.00 0.00 0.00 0.00 0.00 0.00 0.00 0.00 0.01 0.00 0.03 0.05 0.06 0.06 0.10 0.08 0.14 0.15 0.20 0.23 0.30 0.39 0.25 0.21 0.37 0.26 0.17 0.23
0.00 0.00 0.00 0.00 0.00 0.00 0.00 0.00 0.00 0.00 0.00 0.01 0.03 0.04 0.02 0.04 0.09 0.06 0.06 0.03 0.05 0.03 0.20 0.14 0.09 0.08 0.08 0.16 0.19 0.23 0.29 0.45
0.00 0.00 0.00 0.00 0.00 0.00 0.00 0.00 0.00 0.00 0.00 0.02 0.03 0.01 0.07 0.09 0.16 0.20 0.14 0.07 0.04 0.04 0.02 0.14 0.09 0.09 0.13 0.25 0.23 0.22 0.43 0.54
0.00 0.00 0.00 0.00 0.00 0.00 0.00 0.00 0.00 0.00 0.00 0.00 0.01 0.02 0.07 0.26 0.43 0.31 0.20 0.08 0.05 0.02 0.02 0.08 0.06 0.06 0.15 0.27 0.25 0.32 0.39 0.31
0.04 0.05 0.05 0.05 0.00 0.00 0.00 0.01 0.00 0.00 0.02 0.05 0.07 0.16 0.20 0.37 0.29 0.26 0.15 0.07 0.02 0.02 0.02 0.13 0.16 0.13 0.15 0.19 0.18 0.26 0.20 0.24
0.02 0.01 0.03 0.04 0.02 0.01 0.02 0.06 0.06 0.09 0.14 0.17 0.23 0.22 0.22 0.18 0.14 0.09 0.06 0.04 0.02 0.02 0.02 0.03 0.08 0.19 0.22 0.18 0.17 0.25 0.23 0.22
0.01 0.02 0.05 0.07 0.06 0.05 0.05 0.06 0.07 0.12 0.16 0.17 0.15 0.11 0.09 0.07 0.05 0.03 0.01 0.01 0.01 0.01 0.02 0.03 0.06 0.11 0.18 0.21 0.23 0.28 0.37 0.43
0.05 0.05 0.05 0.07 0.08 0.08 0.07 0.07 0.07 0.04 0.03 0.04 0.06 0.04 0.02 0.01 0.00 0.00 0.00 0.01 0.01 0.02 0.05 0.07 0.08 0.15 0.22 0.29 0.38 0.42 0.46 0.53
0.02 0.03 0.04 0.09 0.11 0.14 0.16 0.15 0.09 0.12 0.10 0.07 0.04 0.01 0.00 0.00 0.00 0.00 0.00 0.00 0.00 0.01 0.01 0.01 0.02 0.03 0.05 0.13 0.22 0.29 0.28 0.28
0.05 0.05 0.04 0.07 0.08 0.07 0.07 0.15 0.19 0.09 0.07 0.09 0.08 0.05 0.01 0.00 0.00 0.00 0.00 0.00 0.00 0.01 0.01 0.02 0.06 0.09 0.14 0.20 0.22 0.24 0.28 0.24
0.01 0.00 0.01 0.03 0.05 0.06 0.04 0.04 0.05 0.08 0.03 0.02 0.03 0.02 0.02 0.02 0.01 0.01 0.01 0.04 0.07 0.12 0.15 0.13 0.14 0.16 0.24 0.26 0.27 0.20 0.15 0.12
0.01 0.02 0.01 0.01 0.02 0.04 0.04 0.03 0.01 0.01 0.01 0.00 0.00 0.00 0.01 0.01 0.02 0.01 0.00 0.01 0.07 0.11 0.15 0.16 0.16 0.14 0.21 0.21 0.23 0.16 0.10 0.10
0.02 0.03 0.06 0.05 0.03 0.04 0.04 0.03 0.03 0.04 0.06 0.08 0.07 0.02 0.01 0.01 0.00 0.00 0.00 0.01 0.03 0.03 0.04 0.03 0.02 0.02 0.05 0.06 0.08 0.06 0.11 0.18

GFSFLT1_prec_precacc24_273.txt.gz
Total_Precipitation_Accumulation
0.00 0.00 0.00 0.00 0.00 0.00 0.00 0.00 0.00 0.00 0.00 0.00 0.00 0.00 0.00 0.01 0.03 0.09 0.05 0.01 0.00 0.00 0.00 0.00 0.00 0.00 0.00 0.00 0.00 0.00 0.01 0.05
0.00 0.00 0.00 0.00 0.00 0.00 0.00 0.00 0.00 0.00 0.00 0.00 0.00 0.00 0.00 0.00 0.04 0.19 0.20 0.11 0.03 0.02 0.01 0.01 0.01 0.01 0.02 0.03 0.03 0.01 0.07 0.23
0.00 0.00 0.00 0.00 0.00 0.00 0.00 0.00 0.00 0.00 0.00 0.00 0.00 0.00 0.00 0.00 0.01 0.06 0.19 0.31 0.15 0.05 0.04 0.04 0.04 0.02 0.02 0.10 0.09 0.08 0.02 0.41
0.00 0.00 0.00 0.00 0.00 0.00 0.00 0.00 0.00 0.00 0.00 0.00 0.00 0.00 0.00 0.00 0.00 0.00 0.01 0.16 0.29 0.25 0.19 0.16 0.16 0.17 0.17 0.17 0.11 0.19 0.21 0.35
0.00 0.00 0.00 0.00 0.00 0.00 0.00 0.00 0.00 0.00 0.00 0.00 0.00 0.00 0.00 0.00 0.00 0.00 0.00 0.18 0.42 0.34 0.20 0.20 0.18 0.13 0.16 0.14 0.11 0.12 0.32 0.24
0.00 0.00 0.00 0.00 0.00 0.00 0.00 0.00 0.00 0.00 0.00 0.00 0.00 0.00 0.01 0.05 0.07 0.06 0.03 0.04 0.15 0.30 0.35 0.42 0.29 0.20 0.15 0.11 0.24 0.29 0.22 0.27
0.00 0.00 0.00 0.00 0.00 0.00 0.00 0.00 0.00 0.00 0.00 0.00 0.01 0.00 0.03 0.05 0.06 0.06 0.10 0.08 0.07 0.23 0.21 0.26 0.34 0.41 0.24 0.19 0.32 0.23 0.15 0.20
0.00 0.00 0.00 0.00 0.00 0.00 0.00 0.00 0.00 0.00 0.00 0.01 0.03 0.04 0.02 0.04 0.09 0.07 0.06 0.11 0.10 0.22 0.30 0.19 0.11 0.08 0.06 0.14 0.14 0.16 0.22 0.37
0.00 0.00 0.00 0.00 0.00 0.00 0.00 0.00 0.00 0.00 0.00 0.02 0.03 0.01 0.07 0.09 0.17 0.34 0.37 0.40 0.32 0.38 0.28 0.25 0.11 0.11 0.12 0.25 0.20 0.17 0.36 0.44
0.00 0.00 0.00 0.00 0.00 0.00 0.00 0.00 0.00 0.00 0.00 0.00 0.01 0.02 0.07 0.32 0.68 0.67 0.59 0.52 0.61 0.67 0.41 0.21 0.15 0.07 0.14 0.26 0.23 0.27 0.32 0.25
0.04 0.05 0.05 0.05 0.00 0.00 0.04 0.04 0.02 0.02 0.03 0.05 0.08 0.19 0.34 0.57 0.50 0.46 0.37 0.55 0.70 0.87 0.53 0.19 0.18 0.13 0.15 0.18 0.16 0.24 0.19 0.20
0.02 0.01 0.03 0.04 0.02 0.01 0.03 0.09 0.10 0.14 0.22 0.24 0.26 0.27 0.33 0.32 0.29 0.25 0.19 0.20 0.19 0.17 0.12 0.03 0.08 0.19 0.22 0.17 0.15 0.21 0.20 0.20
0.01 0.02 0.05 0.07 0.06 0.05 0.06 0.13 0.12 0.15 0.19 0.22 0.21 0.16 0.15 0.13 0.11 0.08 0.05 0.03 0.01 0.01 0.02 0.03 0.06 0.11 0.18 0.21 0.22 0.27 0.36 0.42
0.05 0.05 0.05 0.07 0.08 0.08 0.09 0.16 0.18 0.19 0.13 0.05 0.08 0.11 0.09 0.05 0.04 0.05 0.04 0.02 0.01 0.02 0.05 0.07 0.08 0.15 0.22 0.29 0.38 0.42 0.46 0.53
0.02 0.03 0.04 0.09 0.11 0.14 0.17 0.17 0.15 0.19 0.19 0.15 0.06 0.03 0.03 0.04 0.03 0.01 0.01 0.01 0.00 0.01 0.01 0.01 0.01 0.03 0.05 0.12 0.21 0.28 0.27 0.27
0.05 0.05 0.04 0.07 0.08 0.07 0.07 0.18 0.28 0.22 0.23 0.27 0.28 0.26 0.17 0.08 0.03 0.01 0.00 0.00 0.00 0.01 0.01 0.02 0.05 0.08 0.12 0.18 0.21 0.23 0.27 0.23
0.01 0.00 0.01 0.03 0.05 0.06 0.05 0.05 0.08 0.14 0.21 0.23 0.21 0.16 0.12 0.09 0.06 0.03 0.01 0.01 0.00 0.02 0.07 0.09 0.10 0.11 0.19 0.22 0.24 0.18 0.14 0.11
0.01 0.02 0.01 0.01 0.02 0.04 0.04 0.04 0.04 0.08 0.16 0.25 0.24 0.18 0.16 0.11 0.11 0.08 0.04 0.01 0.01 0.00 0.01 0.03 0.08 0.09 0.15 0.16 0.18 0.11 0.07 0.08
0.02 0.03 0.06 0.05 0.03 0.04 0.04 0.03 0.05 0.08 0.11 0.15 0.21 0.26 0.15 0.03 0.01 0.00 0.00 0.00 0.00 0.00 0.00 0.00 0.00 0.00 0.01 0.02 0.02 0.02 0.02 0.03

GFSFLT1_prec_precacc24_276.txt.gz
Total_Precipitation_Accumulation
0.00 0.00 0.00 0.00 0.00 0.00 0.00 0.00 0.00 0.00 0.00 0.00 0.00 0.00 0.00 0.01 0.03 0.09 0.05 0.01 0.00 0.00 0.00 0.00 0.00 0.00 0.00 0.00 0.00 0.00 0.01 0.05
0.00 0.00 0.00 0.00 0.00 0.00 0.00 0.00 0.00 0.00 0.00 0.00 0.00 0.00 0.00 0.00 0.04 0.19 0.21 0.15 0.05 0.02 0.01 0.01 0.01 0.01 0.02 0.03 0.03 0.02 0.07 0.24
0.00 0.00 0.00 0.00 0.00 0.00 0.00 0.00 0.00 0.00 0.00 0.00 0.00 0.00 0.00 0.00 0.01 0.06 0.19 0.33 0.24 0.09 0.04 0.04 0.04 0.02 0.02 0.11 0.17 0.16 0.07 0.43
0.00 0.00 0.00 0.00 0.00 0.00 0.00 0.00 0.00 0.00 0.00 0.00 0.00 0.00 0.00 0.00 0.00 0.00 0.01 0.16 0.33 0.34 0.25 0.18 0.17 0.18 0.17 0.18 0.18 0.33 0.27 0.39
0.00 0.00 0.00 0.00 0.00 0.00 0.00 0.00 0.00 0.00 0.00 0.00 0.00 0.00 0.00 0.00 0.00 0.00 0.00 0.18 0.44 0.43 0.26 0.20 0.18 0.13 0.16 0.18 0.20 0.21 0.42 0.29
0.00 0.00 0.00 0.00 0.00 0.00 0.00 0.00 0.00 0.00 0.00 0.00 0.00 0.00 0.01 0.05 0.07 0.06 0.03 0.04 0.15 0.29 0.33 0.38 0.27 0.20 0.17 0.17 0.33 0.44 0.39 0.38
0.00 0.00 0.00 0.00 0.00 0.00 0.00 0.00 0.00 0.00 0.00 0.00 0.01 0.00 0.03 0.05 0.06 0.07 0.11 0.08 0.07 0.23 0.21 0.21 0.35 0.45 0.34 0.26 0.43 0.46 0.33 0.34
0.00 0.00 0.00 0.00 0.00 0.00 0.00 0.00 0.00 0.00 0.00 0.01 0.03 0.04 0.02 0.04 0.09 0.07 0.07 0.14 0.23 0.40 0.44 0.30 0.25 0.18 0.20 0.28 0.33 0.38 0.45 0.51
0.00 0.00 0.00 0.00 0.00 0.00 0.00 0.00 0.00 0.01 0.01 0.02 0.04 0.02 0.08 0.10 0.18 0.35 0.39 0.51 0.50 0.66 0.63 0.66 0.67 0.74 0.87 0.70 0.40 0.36 0.45 0.48
0.00 0.00 0.00 0.00 0.00 0.00 0.01 0.06 0.06 0.05 0.03 0.01 0.01 0.02 0.08 0.36 0.78 0.78 0.72 0.73 0.83 0.90 1.02 1.06 1.25 1.32 1.36 0.83 0.39 0.36 0.37 0.26
0.04 0.05 0.05 0.05 0.00 0.00 0.05 0.07 0.07 0.07 0.05 0.08 0.11 0.26 0.44 0.70 0.71 0.63 0.54 0.76 0.93 1.08 1.08 0.96 0.76 0.61 0.53 0.37 0.21 0.25 0.19 0.19
0.02 0.01 0.03 0.04 0.02 0.01 0.03 0.11 0.13 0.18 0.26 0.29 0.33 0.35 0.41 0.39 0.38 0.39 0.38 0.39 0.37 0.27 0.19 0.12 0.14 0.22 0.23 0.18 0.15 0.21 0.19 0.19
0.01 0.02 0.05 0.07 0.06 0.05 0.06 0.15 0.18 0.22 0.31 0.36 0.30 0.23 0.22 0.18 0.15 0.10 0.10 0.09 0.06 0.03 0.03 0.03 0.06 0.11 0.18 0.20 0.22 0.26 0.35 0.42
0.05 0.05 0.05 0.07 0.08 0.08 0.09 0.18 0.24 0.27 0.36 0.36 0.33 0.17 0.10 0.06 0.05 0.06 0.05 0.03 0.02 0.03 0.06 0.08 0.09 0.15 0.22 0.28 0.37 0.41 0.45 0.51
0.02 0.03 0.04 0.09 0.11 0.14 0.17 0.18 0.15 0.20 0.22 0.22 0.21 0.14 0.10 0.07 0.06 0.05 0.04 0.04 0.03 0.04 0.04 0.02 0.01 0.02 0.04 0.09 0.17 0.25 0.24 0.24
0.05 0.05 0.04 0.07 0.08 0.07 0.07 0.18 0.29 0.24 0.26 0.30 0.35 0.42 0.32 0.16 0.06 0.03 0.04 0.03 0.02 0.02 0.02 0.02 0.03 0.03 0.05 0.08 0.10 0.11 0.18 0.19
0.01 0.00 0.01 0.03 0.05 0.06 0.05 0.06 0.09 0.16 0.27 0.29 0.36 0.33 0.29 0.27 0.20 0.13 0.13 0.14 0.09 0.03 0.01 0.01 0.01 0.02 0.05 0.07 0.08 0.06 0.07 0.07
0.01 0.02 0.01 0.01 0.02 0.04 0.04 0.04 0.06 0.13 0.25 0.35 0.39 0.37 0.36 0.43 0.38 0.28 0.16 0.09 0.05 0.05 0.05 0.04 0.02 0.01 0.01 0.02 0.03 0.02 0.03 0.03
0.02 0.03 0.06 0.05 0.03 0.04 0.04 0.04 0.09 0.13 0.17 0.23 0.29 0.35 0.36 0.30 0.15 0.06 0.01 0.01 0.01 0.01 0.00 0.01 0.01 0.00 0.00 0.00 0.00 0.00 0.00 0.00

GFSFLT1_prec_precacc24_279.txt.gz
Total_Precipitation_Accumulation
0.00 0.00 0.00 0.00 0.00 0.00 0.00 0.00 0.00 0.00 0.00 0.00 0.00 0.00 0.00 0.01 0.03 0.09 0.05 0.01 0.00 0.00 0.00 0.00 0.00 0.00 0.00 0.00 0.00 0.00 0.01 0.05
0.00 0.00 0.00 0.00 0.00 0.00 0.00 0.00 0.00 0.00 0.00 0.00 0.00 0.00 0.00 0.00 0.04 0.19 0.21 0.15 0.05 0.02 0.01 0.01 0.01 0.01 0.02 0.03 0.03 0.01 0.07 0.24
0.00 0.00 0.00 0.00 0.00 0.00 0.00 0.00 0.00 0.00 0.00 0.00 0.00 0.00 0.00 0.00 0.01 0.06 0.19 0.33 0.24 0.09 0.04 0.04 0.04 0.02 0.02 0.11 0.17 0.16 0.07 0.42
0.00 0.00 0.00 0.00 0.00 0.00 0.00 0.00 0.00 0.00 0.00 0.00 0.00 0.00 0.00 0.00 0.00 0.00 0.01 0.16 0.33 0.34 0.26 0.19 0.17 0.18 0.17 0.18 0.18 0.32 0.27 0.37
0.00 0.00 0.00 0.00 0.00 0.00 0.00 0.00 0.00 0.00 0.00 0.00 0.00 0.00 0.00 0.00 0.00 0.00 0.00 0.18 0.44 0.43 0.27 0.21 0.19 0.13 0.16 0.18 0.20 0.20 0.41 0.27
0.00 0.00 0.00 0.00 0.00 0.00 0.00 0.00 0.00 0.00 0.00 0.00 0.00 0.00 0.01 0.05 0.07 0.06 0.03 0.04 0.15 0.29 0.33 0.38 0.28 0.21 0.17 0.17 0.33 0.43 0.39 0.37
0.00 0.00 0.00 0.00 0.00 0.00 0.00 0.00 0.00 0.00 0.00 0.00 0.01 0.01 0.03 0.05 0.06 0.07 0.11 0.09 0.07 0.23 0.21 0.22 0.35 0.45 0.34 0.26 0.43 0.47 0.35 0.37
0.00 0.00 0.00 0.00 0.00 0.00 0.00 0.00 0.00 0.00 0.01 0.03 0.05 0.06 0.03 0.05 0.10 0.08 0.09 0.16 0.24 0.41 0.46 0.35 0.34 0.22 0.21 0.30 0.39 0.46 0.63 0.99
0.00 0.00 0.00 0.00 0.00 0.00 0.00 0.00 0.00 0.02 0.02 0.06 0.07 0.07 0.13 0.12 0.19 0.36 0.41 0.54 0.53 0.70 0.68 0.72 0.74 0.81 0.94 1.07 1.04 1.08 1.30 1.30
0.00 0.00 0.00 0.00 0.00 0.00 0.01 0.06 0.09 0.10 0.08 0.11 0.10 0.10 0.20 0.50 0.96 0.96 0.92 0.91 1.00 1.08 1.25 1.27 1.50 1.52 1.70 1.72 1.62 1.42 1.51 1.46
0.04 0.05 0.05 0.05 0.00 0.00 0.05 0.07 0.08 0.12 0.10 0.20 0.22 0.38 0.58 0.87 0.88 0.87 0.83 1.08 1.22 1.31 1.34 1.26 1.00 0.75 0.64 0.55 0.46 0.50 0.50 0.49
0.02 0.01 0.03 0.04 0.02 0.01 0.03 0.11 0.13 0.18 0.29 0.40 0.50 0.55 0.58 0.55 0.48 0.47 0.50 0.55 0.58 0.49 0.42 0.31 0.24 0.28 0.27 0.24 0.21 0.25 0.17 0.16
0.01 0.02 0.05 0.07 0.06 0.05 0.06 0.15 0.18 0.23 0.34 0.49 0.44 0.35 0.36 0.34 0.31 0.25 0.24 0.19 0.17 0.14 0.13 0.10 0.09 0.10 0.17 0.20 0.21 0.25 0.32 0.38
0.05 0.05 0.05 0.07 0.08 0.08 0.09 0.18 0.24 0.28 0.36 0.41 0.41 0.33 0.23 0.13 0.10 0.16 0.16 0.12 0.06 0.03 0.05 0.07 0.08 0.14 0.22 0.28 0.36 0.38 0.41 0.43
0.02 0.03 0.04 0.09 0.11 0.14 0.17 0.18 0.16 0.20 0.23 0.25 0.25 0.18 0.14 0.09 0.07 0.06 0.07 0.06 0.08 0.08 0.09 0.11 0.12 0.09 0.07 0.07 0.11 0.16 0.15 0.16
0.05 0.05 0.04 0.07 0.08 0.07 0.07 0.19 0.31 0.25 0.27 0.33 0.41 0.52 0.44 0.31 0.23 0.19 0.14 0.10 0.06 0.05 0.05 0.07 0.09 0.10 0.08 0.06 0.06 0.05 0.04 0.03
0.01 0.00 0.01 0.03 0.05 0.06 0.05 0.06 0.09 0.17 0.30 0.33 0.40 0.38 0.34 0.33 0.28 0.26 0.26 0.27 0.23 0.15 0.11 0.10 0.08 0.08 0.07 0.05 0.02 0.00 0.00 0.00
0.01 0.02 0.01 0.01 0.02 0.04 0.05 0.04 0.06 0.14 0.27 0.37 0.43 0.41 0.40 0.49 0.52 0.50 0.40 0.31 0.22 0.19 0.17 0.15 0.12 0.09 0.07 0.05 0.03 0.01 0.00 0.00
0.02 0.03 0.06 0.05 0.03 0.04 0.04 0.04 0.09 0.14 0.19 0.26 0.34 0.41 0.44 0.45 0.38 0.31 0.24 0.19 0.17 0.15 0.11 0.07 0.03 0.01 0.00 0.00 0.00 0.00 0.00 0.00